| time (UTC) | temp F | wind direction | speed MPH | gust MPH | rain 1hr in | rain 24hr in | rain mn in | humidity % | barometer mb |
| 20260903065016 | 62 | 0 | 1.0 | 3.0 | 0.00 | 0.00 | 0.00 | 80 | 1005.7 |
| 20260903064508 | 61 | 183 | 1.0 | 4.0 | 0.00 | 0.00 | 0.00 | 82 | 1005.8 |
| 20260903064010 | 61 | 106 | 1.0 | 4.0 | 0.00 | 0.00 | 0.00 | 79 | 1005.7 |
| 20260903063506 | 60 | 56 | 0.0 | 3.0 | 0.00 | 0.00 | 0.00 | 84 | 1005.7 |
| 20260903062956 | 60 | 42 | 1.0 | 3.0 | 0.00 | 0.00 | 0.00 | 84 | 1005.8 |
| 20260903062501 | 59 | 314 | 1.0 | 3.0 | 0.00 | 0.00 | 0.00 | 86 | 1005.7 |
| 20260903061959 | 59 | 171 | 0.0 | 2.0 | 0.00 | 0.00 | 0.00 | 87 | 1005.7 |
| 20260903061458 | 59 | 69 | 0.0 | 2.0 | 0.00 | 0.00 | 0.00 | 88 | 1005.6 |
| 20260903060957 | 58 | 102 | 0.0 | 2.0 | 0.00 | 0.00 | 0.00 | 88 | 1005.7 |
| 20260903060457 | 58 | 114 | 0.0 | 1.0 | 0.00 | 0.00 | 0.00 | 90 | 1005.8 |
| 20260903055953 | 58 | 138 | 0.0 | 1.0 | 0.00 | 0.00 | 0.00 | 90 | 1005.8 |
| 20260903055454 | 57 | 338 | 0.0 | 1.0 | 0.00 | 0.00 | 0.00 | 91 | 1005.9 |
| 20260903054954 | 56 | 94 | 0.0 | 1.0 | 0.00 | 0.00 | 0.00 | 93 | 1005.8 |
| 20260903054454 | 56 | 63 | 0.0 | 1.0 | 0.00 | 0.00 | 0.00 | 94 | 1005.9 |
| 20260903053954 | 55 | 68 | 0.0 | 0.0 | 0.00 | 0.00 | 0.00 | 95 | 1005.8 |
| 20260903052953 | 55 | 68 | 0.0 | 1.0 | 0.00 | 0.00 | 0.00 | 95 | 1005.8 |
| 20260903052455 | 54 | 54 | 0.0 | 1.0 | 0.00 | 0.00 | 0.00 | 94 | 1005.7 |
| 20260903051952 | 54 | 52 | 0.0 | 1.0 | 0.00 | 0.00 | 0.00 | 94 | 1005.8 |
| 20260903051453 | 54 | 52 | 0.0 | 1.0 | 0.00 | 0.00 | 0.00 | 94 | 1005.8 |
| 20260903050453 | 55 | 52 | 0.0 | 1.0 | 0.00 | 0.00 | 0.00 | 94 | 1005.8 |
| 20260903045952 | 54 | 52 | 0.0 | 1.0 | 0.00 | 0.00 | 0.00 | 94 | 1005.9 |
| 20260903045453 | 55 | 52 | 0.0 | 0.0 | 0.00 | 0.00 | 0.00 | 94 | 1005.8 |
| 20260903044952 | 55 | 52 | 0.0 | 1.0 | 0.00 | 0.00 | 0.00 | 94 | 1005.9 |
| 20260903044454 | 55 | 52 | 0.0 | 1.0 | 0.00 | 0.00 | 0.00 | 94 | 1005.9 |
| 20260903043952 | 55 | 47 | 0.0 | 1.0 | 0.00 | 0.00 | 0.00 | 94 | 1005.9 |
| 20260903043455 | 55 | 47 | 0.0 | 2.0 | 0.00 | 0.00 | 0.00 | 94 | 1005.8 |
| 20260903042953 | 55 | 21 | 0.0 | 2.0 | 0.00 | 0.00 | 0.00 | 94 | 1005.9 |
| 20260903042454 | 55 | 71 | 0.0 | 1.0 | 0.00 | 0.00 | 0.00 | 95 | 1005.9 |
| 20260903041953 | 55 | 71 | 0.0 | 1.0 | 0.00 | 0.00 | 0.00 | 95 | 1006.0 |
| 20260903041455 | 55 | 71 | 0.0 | 1.0 | 0.00 | 0.00 | 0.00 | 95 | 1006.0 |
| 20260903040953 | 55 | 71 | 0.0 | 1.0 | 0.00 | 0.00 | 0.00 | 95 | 1005.9 |
| 20260903040452 | 55 | 39 | 0.0 | 1.0 | 0.00 | 0.00 | 0.00 | 95 | 1005.9 |
| 20260903035950 | 55 | 35 | 0.0 | 2.0 | 0.00 | 0.00 | 0.00 | 95 | 1005.8 |
| 20260903035451 | 55 | 21 | 0.0 | 2.0 | 0.00 | 0.00 | 0.00 | 95 | 1005.9 |
| 20260903034949 | 55 | 44 | 0.0 | 2.0 | 0.00 | 0.00 | 0.00 | 95 | 1006.0 |
| 20260903034451 | 55 | 100 | 0.0 | 2.0 | 0.00 | 0.00 | 0.00 | 95 | 1006.0 |
| 20260903033442 | 54 | 35 | 0.0 | 2.0 | 0.00 | 0.00 | 0.00 | 95 | 1005.9 |
| 20260903032940 | 54 | 37 | 1.0 | 2.0 | 0.00 | 0.00 | 0.00 | 95 | 1005.9 |
| 20260903032438 | 54 | 37 | 0.0 | 0.0 | 0.00 | 0.00 | 0.00 | 94 | 1005.9 |
| 20260903031939 | 54 | 37 | 0.0 | 1.0 | 0.00 | 0.00 | 0.00 | 94 | 1005.9 |
| 20260903030938 | 54 | 85 | 0.0 | 1.0 | 0.00 | 0.00 | 0.00 | 94 | 1005.9 |
| 20260903030435 | 54 | 97 | 0.0 | 1.0 | 0.00 | 0.00 | 0.00 | 94 | 1005.9 |
| 20260903025938 | 54 | 97 | 0.0 | 2.0 | 0.00 | 0.00 | 0.00 | 94 | 1005.9 |
| 20260903025434 | 54 | 32 | 0.0 | 2.0 | 0.00 | 0.00 | 0.00 | 94 | 1005.9 |
| 20260903024933 | 54 | 79 | 0.0 | 1.0 | 0.00 | 0.00 | 0.00 | 94 | 1005.9 |
| 20260903024434 | 54 | 79 | 0.0 | 1.0 | 0.00 | 0.00 | 0.00 | 94 | 1005.9 |
| 20260903023931 | 54 | 79 | 0.0 | 0.0 | 0.00 | 0.00 | 0.00 | 94 | 1006.0 |
| 20260903023429 | 54 | 79 | 0.0 | 0.0 | 0.00 | 0.00 | 0.00 | 94 | 1005.9 |
| 20260903022930 | 54 | 79 | 0.0 | 0.0 | 0.00 | 0.00 | 0.00 | 94 | 1006.0 |
| 20260903022422 | 54 | 79 | 0.0 | 0.0 | 0.00 | 0.00 | 0.00 | 94 | 1006.0 |
| 20260903021407 | 54 | 79 | 0.0 | 0.0 | 0.00 | 0.00 | 0.00 | 94 | 1006.1 |
| 20260903020903 | 54 | 79 | 0.0 | 0.0 | 0.00 | 0.00 | 0.00 | 94 | 1006.1 |
| 20260903020403 | 54 | 79 | 0.0 | 0.0 | 0.00 | 0.00 | 0.00 | 94 | 1006.1 |
| 20260903015906 | 54 | 79 | 0.0 | 0.0 | 0.00 | 0.00 | 0.00 | 93 | 1006.1 |
| 20260903015406 | 54 | 79 | 0.0 | 1.0 | 0.00 | 0.00 | 0.00 | 93 | 1006.1 |
| 20260903014901 | 54 | 79 | 0.0 | 1.0 | 0.00 | 0.00 | 0.00 | 94 | 1006.1 |
| 20260903014400 | 54 | 96 | 0.0 | 0.0 | 0.00 | 0.00 | 0.00 | 93 | 1006.1 |
| 20260903013905 | 54 | 96 | 0.0 | 0.0 | 0.00 | 0.00 | 0.00 | 94 | 1006.1 |
| 20260903013401 | 54 | 96 | 0.0 | 0.0 | 0.00 | 0.00 | 0.00 | 94 | 1006.1 |
| 20260903012901 | 54 | 96 | 0.0 | 1.0 | 0.00 | 0.00 | 0.00 | 94 | 1006.1 |
| 20260903012401 | 54 | 96 | 0.0 | 1.0 | 0.00 | 0.00 | 0.00 | 94 | 1006.1 |
| 20260903011902 | 54 | 96 | 0.0 | 1.0 | 0.00 | 0.00 | 0.00 | 94 | 1006.1 |
| 20260903010850 | 54 | 93 | 0.0 | 0.0 | 0.00 | 0.00 | 0.00 | 93 | 1006.3 |
| 20260903010351 | 54 | 93 | 0.0 | 0.0 | 0.00 | 0.00 | 0.00 | 93 | 1006.3 |
| 20260903005852 | 54 | 93 | 0.0 | 0.0 | 0.00 | 0.00 | 0.00 | 93 | 1006.4 |
| 20260903004849 | 54 | 93 | 0.0 | 0.0 | 0.00 | 0.00 | 0.00 | 93 | 1006.4 |
| 20260903004349 | 54 | 93 | 0.0 | 0.0 | 0.00 | 0.00 | 0.00 | 93 | 1006.4 |
| 20260903003852 | 55 | 93 | 0.0 | 0.0 | 0.00 | 0.00 | 0.00 | 93 | 1006.5 |
| 20260903003347 | 55 | 93 | 0.0 | 0.0 | 0.00 | 0.00 | 0.00 | 94 | 1006.5 |
| 20260903002850 | 55 | 93 | 0.0 | 0.0 | 0.00 | 0.00 | 0.00 | 93 | 1006.6 |
| 20260903002352 | 55 | 93 | 0.0 | 0.0 | 0.00 | 0.00 | 0.00 | 94 | 1006.6 |
| 20260903001352 | 55 | 93 | 0.0 | 0.0 | 0.00 | 0.00 | 0.00 | 94 | 1006.7 |
| 20260902235852 | 55 | 110 | 0.0 | 2.0 | 0.00 | 0.00 | 0.00 | 94 | 1006.7 |
| 20260902234853 | 55 | 37 | 0.0 | 1.0 | 0.00 | 0.00 | 0.00 | 94 | 1006.8 |
| 20260902234353 | 55 | 37 | 0.0 | 1.0 | 0.00 | 0.00 | 0.00 | 94 | 1006.8 |
| 20260902233354 | 55 | 41 | 0.0 | 1.0 | 0.00 | 0.00 | 0.00 | 94 | 1006.9 |
| 20260902232352 | 55 | 75 | 0.0 | 1.0 | 0.00 | 0.00 | 0.00 | 94 | 1007.1 |
| 20260902231851 | 55 | 68 | 0.0 | 0.0 | 0.00 | 0.00 | 0.00 | 94 | 1007.1 |
| 20260902231352 | 55 | 68 | 0.0 | 0.0 | 0.00 | 0.00 | 0.00 | 94 | 1007.1 |
| 20260902230852 | 54 | 68 | 0.0 | 0.0 | 0.00 | 0.00 | 0.00 | 93 | 1007.1 |
| 20260902230353 | 54 | 68 | 0.0 | 0.0 | 0.00 | 0.00 | 0.00 | 93 | 1007.2 |
| 20260902225852 | 54 | 68 | 0.0 | 0.0 | 0.00 | 0.00 | 0.00 | 93 | 1007.1 |
| 20260902225352 | 54 | 68 | 0.0 | 0.0 | 0.00 | 0.00 | 0.00 | 93 | 1007.1 |
| 20260902224852 | 54 | 68 | 0.0 | 0.0 | 0.00 | 0.00 | 0.00 | 93 | 1007.1 |
| 20260902224351 | 54 | 68 | 0.0 | 1.0 | 0.00 | 0.00 | 0.00 | 93 | 1007.1 |
| 20260902223852 | 54 | 68 | 0.0 | 1.0 | 0.00 | 0.00 | 0.00 | 93 | 1007.2 |
| 20260902223354 | 54 | 68 | 0.0 | 1.0 | 0.00 | 0.00 | 0.00 | 93 | 1007.2 |
| 20260902222855 | 54 | 38 | 0.0 | 1.0 | 0.00 | 0.00 | 0.00 | 93 | 1007.3 |
| 20260902222353 | 54 | 38 | 0.0 | 1.0 | 0.00 | 0.00 | 0.00 | 92 | 1007.3 |
| 20260902221847 | 54 | 38 | 0.0 | 1.0 | 0.00 | 0.00 | 0.00 | 92 | 1007.3 |
| 20260902221348 | 54 | 38 | 0.0 | 1.0 | 0.00 | 0.00 | 0.00 | 92 | 1007.4 |
| 20260902220847 | 54 | 38 | 0.0 | 0.0 | 0.00 | 0.00 | 0.00 | 92 | 1007.5 |
| 20260902220348 | 54 | 38 | 0.0 | 0.0 | 0.00 | 0.00 | 0.00 | 92 | 1007.5 |
| 20260902215852 | 55 | 38 | 0.0 | 0.0 | 0.00 | 0.00 | 0.00 | 92 | 1007.5 |
| 20260902215355 | 55 | 38 | 0.0 | 0.0 | 0.00 | 0.00 | 0.00 | 92 | 1007.4 |
| 20260902214852 | 55 | 38 | 0.0 | 0.0 | 0.00 | 0.00 | 0.00 | 91 | 1007.5 |
| 20260902214353 | 55 | 38 | 0.0 | 0.0 | 0.00 | 0.00 | 0.00 | 91 | 1007.5 |
| 20260902213354 | 55 | 38 | 0.0 | 0.0 | 0.00 | 0.00 | 0.00 | 91 | 1007.6 |
| 20260902212852 | 56 | 38 | 0.0 | 0.0 | 0.00 | 0.00 | 0.00 | 91 | 1007.7 |
| 20260902211854 | 56 | 38 | 0.0 | 0.0 | 0.00 | 0.00 | 0.00 | 91 | 1007.7 |
| 20260902211352 | 56 | 38 | 0.0 | 0.0 | 0.00 | 0.00 | 0.00 | 90 | 1007.8 |
| 20260902210351 | 56 | 38 | 0.0 | 0.0 | 0.00 | 0.00 | 0.00 | 91 | 1007.7 |
| 20260902205851 | 57 | 38 | 0.0 | 1.0 | 0.00 | 0.00 | 0.00 | 90 | 1007.7 |
| 20260902205352 | 57 | 38 | 0.0 | 1.0 | 0.00 | 0.00 | 0.00 | 90 | 1007.7 |
| 20260902204852 | 57 | 38 | 0.0 | 1.0 | 0.00 | 0.00 | 0.00 | 90 | 1007.7 |
| 20260902204352 | 57 | 38 | 0.0 | 2.0 | 0.00 | 0.00 | 0.00 | 91 | 1007.9 |
| 20260902203853 | 57 | 38 | 0.0 | 2.0 | 0.00 | 0.00 | 0.00 | 91 | 1007.8 |
| 20260902203353 | 57 | 55 | 0.0 | 1.0 | 0.00 | 0.00 | 0.00 | 91 | 1007.9 |
| 20260902202852 | 57 | 51 | 0.0 | 1.0 | 0.00 | 0.00 | 0.00 | 91 | 1007.9 |
| 20260902202358 | 57 | 69 | 0.0 | 0.0 | 0.00 | 0.00 | 0.00 | 91 | 1007.9 |
| 20260902201354 | 57 | 69 | 0.0 | 2.0 | 0.00 | 0.00 | 0.00 | 91 | 1008.0 |
| 20260902200854 | 57 | 69 | 0.0 | 2.0 | 0.00 | 0.00 | 0.00 | 91 | 1008.0 |
| 20260902200351 | 57 | 41 | 0.0 | 2.0 | 0.00 | 0.00 | 0.00 | 90 | 1008.0 |
| 20260902195853 | 57 | 41 | 0.0 | 2.0 | 0.00 | 0.00 | 0.00 | 90 | 1007.9 |
| 20260902195351 | 58 | 52 | 0.0 | 2.0 | 0.00 | 0.00 | 0.00 | 91 | 1008.0 |
| 20260902194852 | 58 | 7 | 0.0 | 4.0 | 0.00 | 0.00 | 0.00 | 91 | 1008.0 |
| 20260902194353 | 58 | 357 | 1.0 | 4.0 | 0.00 | 0.00 | 0.00 | 91 | 1007.9 |
| 20260902193855 | 58 | 68 | 0.0 | 3.0 | 0.00 | 0.00 | 0.00 | 91 | 1008.0 |
| 20260902192852 | 58 | 55 | 0.0 | 2.0 | 0.00 | 0.00 | 0.00 | 92 | 1007.9 |
| 20260902191851 | 57 | 18 | 1.0 | 3.0 | 0.00 | 0.00 | 0.00 | 92 | 1008.0 |
| 20260902190852 | 57 | 76 | 0.0 | 1.0 | 0.00 | 0.00 | 0.00 | 91 | 1007.8 |
| 20260902190354 | 57 | 71 | 0.0 | 2.0 | 0.00 | 0.00 | 0.00 | 91 | 1007.8 |
| 20260902185851 | 57 | 127 | 0.0 | 2.0 | 0.00 | 0.00 | 0.00 | 91 | 1007.8 |
| 20260902185351 | 57 | 78 | 0.0 | 1.0 | 0.00 | 0.00 | 0.00 | 90 | 1007.9 |
| 20260902184351 | 57 | 54 | 0.0 | 0.0 | 0.00 | 0.00 | 0.00 | 89 | 1008.0 |
| 20260902183851 | 57 | 54 | 0.0 | 0.0 | 0.00 | 0.00 | 0.00 | 88 | 1008.0 |
| 20260902183352 | 57 | 54 | 0.0 | 0.0 | 0.00 | 0.00 | 0.00 | 88 | 1007.9 |
| 20260902182855 | 57 | 54 | 0.0 | 0.0 | 0.00 | 0.00 | 0.00 | 88 | 1008.0 |
| 20260902182351 | 57 | 54 | 0.0 | 0.0 | 0.00 | 0.00 | 0.00 | 88 | 1008.0 |
| 20260902181849 | 58 | 54 | 0.0 | 0.0 | 0.00 | 0.00 | 0.00 | 88 | 1008.0 |
| 20260902181349 | 58 | 54 | 0.0 | 0.0 | 0.00 | 0.00 | 0.00 | 87 | 1007.9 |
| 20260902180848 | 58 | 54 | 0.0 | 0.0 | 0.00 | 0.00 | 0.00 | 87 | 1008.0 |
| 20260902180348 | 58 | 54 | 0.0 | 0.0 | 0.00 | 0.00 | 0.00 | 86 | 1008.0 |
| 20260902175847 | 58 | 54 | 0.0 | 0.0 | 0.00 | 0.00 | 0.00 | 86 | 1008.0 |
| 20260902175349 | 58 | 54 | 0.0 | 0.0 | 0.00 | 0.00 | 0.00 | 85 | 1008.0 |
| 20260902174850 | 58 | 54 | 0.0 | 0.0 | 0.00 | 0.00 | 0.00 | 84 | 1008.1 |
| 20260902174348 | 58 | 54 | 0.0 | 0.0 | 0.00 | 0.00 | 0.00 | 83 | 1008.0 |
| 20260902173849 | 58 | 54 | 0.0 | 0.0 | 0.00 | 0.00 | 0.00 | 83 | 1008.0 |
| 20260902173348 | 59 | 54 | 0.0 | 0.0 | 0.00 | 0.00 | 0.00 | 82 | 1008.0 |
| 20260902172849 | 59 | 54 | 0.0 | 0.0 | 0.00 | 0.00 | 0.00 | 82 | 1007.9 |
| 20260902172351 | 59 | 54 | 0.0 | 0.0 | 0.00 | 0.00 | 0.00 | 81 | 1007.9 |
| 20260902171853 | 60 | 54 | 0.0 | 0.0 | 0.00 | 0.00 | 0.00 | 81 | 1007.9 |
| 20260902170353 | 60 | 54 | 0.0 | 0.0 | 0.00 | 0.00 | 0.00 | 79 | 1007.8 |
| 20260902165852 | 60 | 54 | 0.0 | 0.0 | 0.00 | 0.00 | 0.00 | 80 | 1007.8 |
| 20260902165354 | 61 | 54 | 0.0 | 0.0 | 0.00 | 0.00 | 0.00 | 80 | 1007.7 |
| 20260902164852 | 61 | 54 | 0.0 | 2.0 | 0.00 | 0.00 | 0.00 | 79 | 1007.7 |
| 20260902163852 | 61 | 94 | 0.0 | 1.0 | 0.00 | 0.00 | 0.00 | 78 | 1007.6 |
| 20260902162851 | 62 | 137 | 0.0 | 0.0 | 0.00 | 0.00 | 0.00 | 78 | 1007.7 |
| 20260902162352 | 62 | 137 | 0.0 | 0.0 | 0.00 | 0.00 | 0.00 | 76 | 1007.6 |
| 20260902161853 | 63 | 137 | 0.0 | 0.0 | 0.00 | 0.00 | 0.00 | 75 | 1007.6 |
| 20260902161354 | 63 | 137 | 0.0 | 0.0 | 0.00 | 0.00 | 0.00 | 75 | 1007.6 |
| 20260902160351 | 64 | 82 | 0.0 | 2.0 | 0.00 | 0.00 | 0.00 | 74 | 1007.6 |
| 20260902155855 | 64 | 202 | 0.0 | 2.0 | 0.00 | 0.00 | 0.00 | 73 | 1007.7 |
| 20260902155354 | 64 | 331 | 0.0 | 4.0 | 0.00 | 0.00 | 0.00 | 74 | 1007.6 |
| 20260902154851 | 64 | 327 | 1.0 | 4.0 | 0.00 | 0.00 | 0.00 | 71 | 1007.7 |
| 20260902153329 | 65 | 135 | 1.0 | 3.0 | 0.00 | 0.00 | 0.00 | 74 | 1007.7 |
| 20260902152828 | 65 | 223 | 1.0 | 2.0 | 0.00 | 0.00 | 0.00 | 72 | 1007.6 |
| 20260902152327 | 65 | 18 | 1.0 | 3.0 | 0.00 | 0.00 | 0.00 | 73 | 1007.7 |
| 20260902151825 | 65 | 321 | 0.0 | 3.0 | 0.00 | 0.00 | 0.00 | 74 | 1007.7 |
| 20260902151313 | 65 | 75 | 0.0 | 1.0 | 0.00 | 0.00 | 0.00 | 73 | 1007.7 |
| 20260902150812 | 65 | 193 | 0.0 | 2.0 | 0.00 | 0.00 | 0.00 | 72 | 1007.7 |
| 20260902150310 | 65 | 189 | 0.0 | 3.0 | 0.00 | 0.00 | 0.00 | 71 | 1007.8 |
| 20260902145802 | 65 | 0 | 0.0 | 3.0 | 0.00 | 0.00 | 0.00 | 71 | 1007.9 |
| 20260902145301 | 65 | 58 | 0.0 | 2.0 | 0.00 | 0.00 | 0.00 | 71 | 1007.8 |
| 20260902144809 | 65 | 89 | 0.0 | 2.0 | 0.00 | 0.00 | 0.00 | 68 | 1007.8 |
| 20260902144301 | 65 | 324 | 0.0 | 3.0 | 0.00 | 0.00 | 0.00 | 70 | 1007.8 |
| 20260902143301 | 66 | 21 | 1.0 | 2.0 | 0.00 | 0.00 | 0.00 | 68 | 1007.9 |
| 20260902142301 | 66 | 34 | 0.0 | 3.0 | 0.00 | 0.00 | 0.00 | 67 | 1007.9 |
| 20260902141801 | 66 | 11 | 0.0 | 4.0 | 0.00 | 0.00 | 0.00 | 65 | 1007.8 |
| 20260902140805 | 66 | 14 | 0.0 | 2.0 | 0.00 | 0.00 | 0.00 | 66 | 1007.9 |
| 20260902135800 | 66 | 233 | 0.0 | 2.0 | 0.00 | 0.00 | 0.00 | 66 | 1007.8 |
| 20260902135300 | 66 | 354 | 0.0 | 4.0 | 0.00 | 0.00 | 0.00 | 65 | 1007.8 |
| 20260902134758 | 66 | 317 | 1.0 | 4.0 | 0.00 | 0.00 | 0.00 | 65 | 1007.9 |
| 20260902134258 | 66 | 182 | 0.0 | 2.0 | 0.00 | 0.00 | 0.00 | 67 | 1007.8 |
| 20260902133259 | 66 | 334 | 0.0 | 2.0 | 0.00 | 0.00 | 0.00 | 68 | 1007.8 |
| 20260902132800 | 66 | 343 | 0.0 | 1.0 | 0.00 | 0.00 | 0.00 | 68 | 1007.9 |
| 20260902131752 | 66 | 306 | 0.0 | 2.0 | 0.00 | 0.00 | 0.00 | 63 | 1007.9 |
| 20260902130755 | 66 | 353 | 0.0 | 3.0 | 0.00 | 0.00 | 0.00 | 65 | 1007.9 |
| 20260902130250 | 66 | 6 | 1.0 | 2.0 | 0.00 | 0.00 | 0.00 | 64 | 1007.9 |
| 20260902125753 | 66 | 0 | 1.0 | 3.0 | 0.00 | 0.00 | 0.00 | 65 | 1007.9 |
| 20260902125253 | 66 | 3 | 1.0 | 3.0 | 0.00 | 0.00 | 0.00 | 65 | 1007.9 |
| 20260902124751 | 66 | 104 | 1.0 | 3.0 | 0.00 | 0.00 | 0.00 | 67 | 1008.0 |
| 20260902124252 | 66 | 248 | 1.0 | 3.0 | 0.00 | 0.00 | 0.00 | 66 | 1008.0 |
| 20260902123752 | 66 | 321 | 0.0 | 3.0 | 0.00 | 0.00 | 0.00 | 65 | 1008.0 |
| 20260902123250 | 66 | 168 | 0.0 | 3.0 | 0.00 | 0.00 | 0.00 | 66 | 1008.0 |
| 20260902122748 | 66 | 0 | 1.0 | 3.0 | 0.00 | 0.00 | 0.00 | 64 | 1008.0 |
| 20260902121245 | 66 | 283 | 0.0 | 4.0 | 0.00 | 0.00 | 0.00 | 64 | 1008.1 |
| 20260902115738 | 65 | 0 | 1.0 | 2.0 | 0.00 | 0.00 | 0.00 | 67 | 1008.0 |
| 20260902115235 | 65 | 13 | 1.0 | 3.0 | 0.00 | 0.00 | 0.00 | 67 | 1008.0 |
| 20260902114719 | 65 | 226 | 0.0 | 3.0 | 0.00 | 0.00 | 0.00 | 68 | 1008.0 |
| 20260902114215 | 65 | 1 | 0.0 | 3.0 | 0.00 | 0.01 | 0.00 | 67 | 1008.0 |
| 20260902113706 | 65 | 90 | 0.0 | 2.0 | 0.00 | 0.01 | 0.00 | 68 | 1008.2 |
| 20260902113204 | 65 | 202 | 0.0 | 3.0 | 0.00 | 0.01 | 0.00 | 64 | 1008.2 |
| 20260902112710 | 65 | 265 | 1.0 | 3.0 | 0.00 | 0.01 | 0.00 | 66 | 1008.2 |
| 20260902112210 | 65 | 0 | 1.0 | 3.0 | 0.00 | 0.01 | 0.00 | 65 | 1008.2 |
| 20260902111708 | 64 | 320 | 1.0 | 3.0 | 0.00 | 0.01 | 0.00 | 64 | 1008.2 |
| 20260902111207 | 64 | 344 | 0.0 | 2.0 | 0.00 | 0.01 | 0.00 | 65 | 1008.2 |
| 20260902110709 | 64 | 30 | 0.0 | 2.0 | 0.00 | 0.01 | 0.00 | 67 | 1008.3 |
| 20260902110207 | 64 | 355 | 0.0 | 2.0 | 0.00 | 0.01 | 0.00 | 67 | 1008.4 |
| 20260902105701 | 64 | 79 | 0.0 | 2.0 | 0.00 | 0.01 | 0.00 | 66 | 1008.3 |
| 20260902105204 | 64 | 341 | 1.0 | 4.0 | 0.00 | 0.01 | 0.00 | 67 | 1008.4 |
| 20260902104704 | 64 | 3 | 0.0 | 4.0 | 0.00 | 0.01 | 0.00 | 67 | 1008.4 |
| 20260902104215 | 64 | 330 | 2.0 | 4.0 | 0.00 | 0.01 | 0.00 | 66 | 1008.4 |
| 20260902103710 | 64 | 238 | 1.0 | 2.0 | 0.00 | 0.01 | 0.00 | 68 | 1008.4 |
| 20260902103211 | 64 | 281 | 0.0 | 1.0 | 0.00 | 0.01 | 0.00 | 68 | 1008.3 |
| 20260902102704 | 64 | 279 | 0.0 | 2.0 | 0.00 | 0.01 | 0.00 | 67 | 1008.4 |
| 20260902102148 | 64 | 293 | 1.0 | 3.0 | 0.00 | 0.01 | 0.00 | 67 | 1008.4 |
| 20260902101158 | 64 | 344 | 1.0 | 2.0 | 0.00 | 0.01 | 0.00 | 68 | 1008.4 |
| 20260902100659 | 65 | 310 | 0.0 | 2.0 | 0.00 | 0.01 | 0.00 | 67 | 1008.3 |
| 20260902100153 | 65 | 338 | 0.0 | 2.0 | 0.00 | 0.01 | 0.00 | 66 | 1008.4 |
| 20260902095651 | 65 | 341 | 0.0 | 2.0 | 0.00 | 0.01 | 0.00 | 65 | 1008.4 |
| 20260902094651 | 64 | 317 | 0.0 | 1.0 | 0.00 | 0.01 | 0.00 | 68 | 1008.3 |
| 20260902094153 | 64 | 319 | 0.0 | 1.0 | 0.00 | 0.01 | 0.00 | 70 | 1008.2 |
| 20260902093652 | 64 | 314 | 0.0 | 1.0 | 0.00 | 0.01 | 0.00 | 67 | 1008.3 |
| 20260902092651 | 64 | 265 | 0.0 | 3.0 | 0.00 | 0.01 | 0.00 | 69 | 1008.4 |
| 20260902092151 | 64 | 0 | 0.0 | 3.0 | 0.00 | 0.01 | 0.00 | 71 | 1008.4 |
| 20260902091652 | 63 | 128 | 0.0 | 2.0 | 0.00 | 0.01 | 0.00 | 73 | 1008.4 |
| 20260902091151 | 63 | 264 | 1.0 | 2.0 | 0.00 | 0.01 | 0.00 | 68 | 1008.5 |
| 20260902090651 | 64 | 275 | 0.0 | 3.0 | 0.00 | 0.01 | 0.00 | 70 | 1008.4 |
| 20260902085150 | 63 | 283 | 0.0 | 2.0 | 0.00 | 0.01 | 0.00 | 70 | 1008.3 |
| 20260902084652 | 63 | 340 | 0.0 | 2.0 | 0.00 | 0.01 | 0.00 | 71 | 1008.5 |
| 20260902084152 | 63 | 313 | 0.0 | 3.0 | 0.00 | 0.01 | 0.00 | 70 | 1008.4 |
| 20260902083650 | 62 | 51 | 0.0 | 3.0 | 0.00 | 0.01 | 0.00 | 72 | 1008.3 |
| 20260902083150 | 62 | 282 | 0.0 | 2.0 | 0.00 | 0.01 | 0.00 | 73 | 1008.4 |
| 20260902082652 | 62 | 257 | 1.0 | 2.0 | 0.00 | 0.01 | 0.00 | 72 | 1008.4 |
| 20260902082150 | 62 | 286 | 1.0 | 2.0 | 0.00 | 0.01 | 0.00 | 72 | 1008.3 |
| 20260902081650 | 62 | 320 | 0.0 | 2.0 | 0.00 | 0.01 | 0.00 | 73 | 1008.3 |
| 20260902081152 | 62 | 78 | 1.0 | 2.0 | 0.00 | 0.01 | 0.00 | 73 | 1008.3 |
| 20260902080651 | 61 | 17 | 1.0 | 2.0 | 0.00 | 0.01 | 0.00 | 76 | 1008.3 |
| 20260902080149 | 61 | 326 | 1.0 | 2.0 | 0.00 | 0.01 | 0.00 | 74 | 1008.2 |
| 20260902075651 | 61 | 258 | 1.0 | 2.0 | 0.00 | 0.01 | 0.00 | 76 | 1008.2 |
| 20260902075149 | 61 | 340 | 0.0 | 2.0 | 0.00 | 0.01 | 0.00 | 75 | 1008.2 |
| 20260902074648 | 61 | 94 | 1.0 | 3.0 | 0.00 | 0.01 | 0.00 | 76 | 1008.2 |
| 20260902074148 | 61 | 30 | 1.0 | 3.0 | 0.00 | 0.01 | 0.00 | 77 | 1008.3 |
| 20260902073646 | 60 | 348 | 0.0 | 2.0 | 0.00 | 0.01 | 0.00 | 78 | 1008.3 |
| 20260902073149 | 60 | 289 | 0.0 | 1.0 | 0.00 | 0.01 | 0.00 | 77 | 1008.2 |
| 20260902072152 | 59 | 279 | 1.0 | 3.0 | 0.00 | 0.01 | 0.00 | 80 | 1008.2 |
| 20260902071652 | 59 | 4 | 0.0 | 2.0 | 0.00 | 0.01 | 0.00 | 81 | 1008.1 |
| 20260902071155 | 58 | 351 | 1.0 | 2.0 | 0.00 | 0.01 | 0.00 | 82 | 1008.2 |
| 20260902070650 | 57 | 0 | 0.0 | 1.0 | 0.00 | 0.01 | 0.00 | 82 | 1008.2 |
| 20260902070150 | 58 | 302 | 1.0 | 2.0 | 0.00 | 0.01 | 0.00 | 83 | 1008.1 |